Time,TemperatureF,DewpointF,PressureIn,WindDirection,WindDirectionDegrees,WindSpeedMPH,WindSpeedGustMPH,Humidity,HourlyPrecipIn,Conditions,Clouds,dailyrainin,SoftwareType,DateUTC
2013-04-01 00:02:00,22.0,21.0,30.07,North,-999,-999.0,-999.0,97,-99.99,,,-99.99,,2013-04-01 08:02:00,
2013-04-01 00:12:00,22.0,21.0,30.07,North,-999,-999.0,-999.0,97,-99.99,,,-99.99,,2013-04-01 08:12:00,
2013-04-01 00:21:00,21.0,21.0,30.07,North,-999,-999.0,-999.0,99,-99.99,,,-99.99,,2013-04-01 08:21:00,
2013-04-01 00:32:00,20.0,20.0,30.07,North,-999,-999.0,-999.0,99,-99.99,,,-99.99,,2013-04-01 08:32:00,
2013-04-01 00:43:00,19.0,19.0,30.07,North,-999,-999.0,-999.0,100,-99.99,,,-99.99,,2013-04-01 08:43:00,
2013-04-01 00:52:00,19.0,19.0,30.06,North,-999,-999.0,-999.0,100,-99.99,,,-99.99,,2013-04-01 08:52:00,
2013-04-01 01:02:00,18.0,18.0,30.06,North,-999,-999.0,-999.0,100,-99.99,,,-99.99,,2013-04-01 09:02:00,
2013-04-01 01:12:00,18.0,18.0,30.06,North,-999,-999.0,-999.0,100,-99.99,,,-99.99,,2013-04-01 09:12:00,
2013-04-01 01:21:00,18.0,18.0,30.06,North,-999,-999.0,-999.0,100,-99.99,,,-99.99,,2013-04-01 09:21:00,
2013-04-01 01:33:00,17.0,17.0,30.06,North,-999,-999.0,-999.0,100,-99.99,,,-99.99,,2013-04-01 09:33:00,
2013-04-01 01:42:00,16.0,16.0,30.06,North,-999,-999.0,-999.0,100,-99.99,,,-99.99,,2013-04-01 09:42:00,
2013-04-01 01:52:00,15.0,15.0,30.06,North,-999,-999.0,-999.0,100,-99.99,,,-99.99,,2013-04-01 09:52:00,
2013-04-01 02:02:00,15.0,15.0,30.06,North,-999,-999.0,-999.0,100,-99.99,,,-99.99,,2013-04-01 10:02:00,
2013-04-01 02:12:00,15.0,15.0,30.06,North,-999,-999.0,-999.0,100,-99.99,,,-99.99,,2013-04-01 10:12:00,
2013-04-01 02:22:00,15.0,15.0,30.06,North,-999,-999.0,-999.0,100,-99.99,,,-99.99,,2013-04-01 10:22:00,
2013-04-01 02:33:00,16.0,16.0,30.05,North,-999,-999.0,-999.0,100,-99.99,,,-99.99,,2013-04-01 10:33:00,
2013-04-01 02:42:00,16.0,16.0,30.05,North,-999,-999.0,-999.0,100,-99.99,,,-99.99,,2013-04-01 10:42:00,
2013-04-01 02:52:00,16.0,16.0,30.04,North,-999,-999.0,-999.0,100,-99.99,,,-99.99,,2013-04-01 10:52:00,
2013-04-01 03:02:00,17.0,17.0,30.04,North,-999,-999.0,-999.0,100,-99.99,,,-99.99,,2013-04-01 11:02:00,
2013-04-01 03:11:00,17.0,17.0,30.04,North,-999,-999.0,-999.0,99,-99.99,,,-99.99,,2013-04-01 11:11:00,
2013-04-01 03:22:00,18.0,17.0,30.03,North,-999,-999.0,-999.0,98,-99.99,,,-99.99,,2013-04-01 11:22:00,
2013-04-01 03:32:00,18.0,18.0,30.03,North,-999,-999.0,-999.0,98,-99.99,,,-99.99,,2013-04-01 11:32:00,
2013-04-01 03:42:00,18.0,18.0,30.03,North,-999,-999.0,-999.0,98,-99.99,,,-99.99,,2013-04-01 11:42:00,
2013-04-01 03:52:00,18.0,18.0,30.02,North,-999,-999.0,-999.0,98,-99.99,,,-99.99,,2013-04-01 11:52:00,
2013-04-01 04:02:00,19.0,19.0,30.01,North,-999,-999.0,-999.0,99,-99.99,,,-99.99,,2013-04-01 12:02:00,
2013-04-01 04:12:00,19.0,19.0,30.01,North,-999,-999.0,-999.0,99,-99.99,,,-99.99,,2013-04-01 12:12:00,
2013-04-01 04:21:00,20.0,19.0,30.01,North,-999,-999.0,-999.0,98,-99.99,,,-99.99,,2013-04-01 12:21:00,
2013-04-01 04:32:00,20.0,19.0,30.01,North,-999,-999.0,-999.0,97,-99.99,,,-99.99,,2013-04-01 12:32:00,
2013-04-01 04:42:00,20.0,19.0,30.01,North,-999,-999.0,-999.0,97,-99.99,,,-99.99,,2013-04-01 12:42:00,
2013-04-01 04:52:00,20.0,19.0,30.01,North,-999,-999.0,-999.0,98,-99.99,,,-99.99,,2013-04-01 12:52:00,
2013-04-01 05:02:00,20.0,20.0,30.02,North,-999,-999.0,-999.0,98,-99.99,,,-99.99,,2013-04-01 13:02:00,
2013-04-01 05:11:00,20.0,20.0,30.01,North,-999,-999.0,-999.0,98,-99.99,,,-99.99,,2013-04-01 13:11:00,
2013-04-01 05:21:00,20.0,20.0,30.01,North,-999,-999.0,-999.0,97,-99.99,,,-99.99,,2013-04-01 13:21:00,
2013-04-01 05:32:00,21.0,20.0,30.00,North,-999,-999.0,-999.0,98,-99.99,,,-99.99,,2013-04-01 13:32:00,
2013-04-01 05:42:00,21.0,21.0,30.00,North,-999,-999.0,-999.0,98,-99.99,,,-99.99,,2013-04-01 13:42:00,
2013-04-01 05:52:00,21.0,20.0,30.00,North,-999,-999.0,-999.0,97,-99.99,,,-99.99,,2013-04-01 13:52:00,
2013-04-01 06:02:00,21.0,21.0,29.99,North,-999,-999.0,-999.0,98,-99.99,,,-99.99,,2013-04-01 14:02:00,
2013-04-01 06:12:00,21.0,21.0,29.99,North,-999,-999.0,-999.0,97,-99.99,,,-99.99,,2013-04-01 14:12:00,
2013-04-01 06:21:00,22.0,21.0,29.98,North,-999,-999.0,-999.0,96,-99.99,,,-99.99,,2013-04-01 14:21:00,
2013-04-01 06:32:00,22.0,21.0,29.98,North,-999,-999.0,-999.0,95,-99.99,,,-99.99,,2013-04-01 14:32:00,
2013-04-01 06:42:00,22.0,21.0,29.98,North,-999,-999.0,-999.0,96,-99.99,,,-99.99,,2013-04-01 14:42:00,
2013-04-01 06:52:00,21.0,20.0,29.98,North,-999,-999.0,-999.0,95,-99.99,,,-99.99,,2013-04-01 14:52:00,
2013-04-01 07:02:00,21.0,20.0,29.98,North,-999,-999.0,-999.0,93,-99.99,,,-99.99,,2013-04-01 15:02:00,
2013-04-01 07:12:00,20.0,19.0,29.98,North,-999,-999.0,-999.0,93,-99.99,,,-99.99,,2013-04-01 15:12:00,
2013-04-01 07:22:00,18.0,17.0,29.98,North,-999,-999.0,-999.0,94,-99.99,,,-99.99,,2013-04-01 15:22:00,
2013-04-01 07:33:00,17.0,16.0,29.99,North,-999,-999.0,-999.0,95,-99.99,,,-99.99,,2013-04-01 15:33:00,
2013-04-01 07:43:00,16.0,15.0,29.98,North,-999,-999.0,-999.0,97,-99.99,,,-99.99,,2013-04-01 15:43:00,
2013-04-01 07:53:00,15.0,15.0,29.99,North,-999,-999.0,-999.0,97,-99.99,,,-99.99,,2013-04-01 15:53:00,
2013-04-01 08:02:00,15.0,14.0,29.99,North,-999,-999.0,-999.0,97,-99.99,,,-99.99,,2013-04-01 16:02:00,
2013-04-01 08:12:00,14.0,14.0,29.98,North,-999,-999.0,-999.0,97,-99.99,,,-99.99,,2013-04-01 16:12:00,
2013-04-01 08:22:00,15.0,15.0,29.98,North,-999,-999.0,-999.0,99,-99.99,,,-99.99,,2013-04-01 16:22:00,
2013-04-01 08:32:00,17.0,16.0,29.97,North,-999,-999.0,-999.0,99,-99.99,,,-99.99,,2013-04-01 16:32:00,
2013-04-01 08:42:00,18.0,17.0,29.97,North,-999,-999.0,-999.0,97,-99.99,,,-99.99,,2013-04-01 16:42:00,
2013-04-01 08:52:00,19.0,18.0,29.97,North,-999,-999.0,-999.0,93,-99.99,,,-99.99,,2013-04-01 16:52:00,
2013-04-01 09:02:00,20.0,18.0,29.97,North,-999,-999.0,-999.0,90,-99.99,,,-99.99,,2013-04-01 17:02:00,
2013-04-01 09:12:00,22.0,18.0,29.97,North,-999,-999.0,-999.0,86,-99.99,,,-99.99,,2013-04-01 17:12:00,
2013-04-01 09:22:00,23.0,18.0,29.97,North,-999,-999.0,-999.0,83,-99.99,,,-99.99,,2013-04-01 17:22:00,
2013-04-01 09:31:00,23.0,18.0,29.97,North,-999,-999.0,-999.0,82,-99.99,,,-99.99,,2013-04-01 17:31:00,
2013-04-01 09:41:00,24.0,19.0,29.96,North,-999,-999.0,-999.0,81,-99.99,,,-99.99,,2013-04-01 17:41:00,
2013-04-01 09:52:00,25.0,18.0,29.95,North,-999,-999.0,-999.0,76,-99.99,,,-99.99,,2013-04-01 17:52:00,
2013-04-01 10:02:00,25.0,17.0,29.95,North,-999,-999.0,-999.0,70,-99.99,,,-99.99,,2013-04-01 18:02:00,
2013-04-01 10:11:00,27.0,18.0,29.95,North,-999,-999.0,-999.0,70,-99.99,,,-99.99,,2013-04-01 18:11:00,
2013-04-01 10:21:00,28.0,19.0,29.95,North,-999,-999.0,-999.0,69,-99.99,,,-99.99,,2013-04-01 18:21:00,
2013-04-01 10:32:00,27.0,19.0,29.95,North,-999,-999.0,-999.0,68,-99.99,,,-99.99,,2013-04-01 18:32:00,
2013-04-01 10:42:00,29.0,19.0,29.94,North,-999,-999.0,-999.0,66,-99.99,,,-99.99,,2013-04-01 18:42:00,
2013-04-01 10:51:00,29.0,19.0,29.94,North,-999,-999.0,-999.0,65,-99.99,,,-99.99,,2013-04-01 18:51:00,
2013-04-01 11:02:00,31.0,19.0,29.93,North,-999,-999.0,-999.0,62,-99.99,,,-99.99,,2013-04-01 19:02:00,
2013-04-01 11:12:00,31.0,19.0,29.93,North,-999,-999.0,-999.0,60,-99.99,,,-99.99,,2013-04-01 19:12:00,
2013-04-01 11:22:00,31.0,19.0,29.93,North,-999,-999.0,-999.0,60,-99.99,,,-99.99,,2013-04-01 19:22:00,
2013-04-01 11:32:00,32.0,19.0,29.92,North,-999,-999.0,-999.0,58,-99.99,,,-99.99,,2013-04-01 19:32:00,
2013-04-01 11:42:00,32.0,19.0,29.92,North,-999,-999.0,-999.0,58,-99.99,,,-99.99,,2013-04-01 19:42:00,
2013-04-01 11:52:00,33.0,19.0,29.91,North,-999,-999.0,-999.0,55,-99.99,,,-99.99,,2013-04-01 19:52:00,
2013-04-01 12:02:00,34.0,19.0,29.91,North,-999,-999.0,-999.0,53,-99.99,,,-99.99,,2013-04-01 20:02:00,
2013-04-01 12:12:00,35.0,18.0,29.90,North,-999,-999.0,-999.0,51,-99.99,,,-99.99,,2013-04-01 20:12:00,
2013-04-01 12:21:00,35.0,19.0,29.90,North,-999,-999.0,-999.0,51,-99.99,,,-99.99,,2013-04-01 20:21:00,
2013-04-01 12:32:00,35.0,18.0,29.90,North,-999,-999.0,-999.0,50,-99.99,,,-99.99,,2013-04-01 20:32:00,
2013-04-01 12:42:00,35.0,18.0,29.90,North,-999,-999.0,-999.0,50,-99.99,,,-99.99,,2013-04-01 20:42:00,
2013-04-01 12:51:00,36.0,18.0,29.90,North,-999,-999.0,-999.0,48,-99.99,,,-99.99,,2013-04-01 20:51:00,
2013-04-01 13:02:00,37.0,19.0,29.89,North,-999,-999.0,-999.0,46,-99.99,,,-99.99,,2013-04-01 21:02:00,
2013-04-01 13:11:00,36.0,18.0,29.89,North,-999,-999.0,-999.0,47,-99.99,,,-99.99,,2013-04-01 21:11:00,
2013-04-01 13:22:00,37.0,18.0,29.89,North,-999,-999.0,-999.0,47,-99.99,,,-99.99,,2013-04-01 21:22:00,
2013-04-01 13:32:00,37.0,19.0,29.89,North,-999,-999.0,-999.0,46,-99.99,,,-99.99,,2013-04-01 21:32:00,
2013-04-01 13:43:00,37.0,19.0,29.89,North,-999,-999.0,-999.0,46,-99.99,,,-99.99,,2013-04-01 21:43:00,
2013-04-01 13:52:00,38.0,19.0,29.89,North,-999,-999.0,-999.0,46,-99.99,,,-99.99,,2013-04-01 21:52:00,
2013-04-01 14:02:00,38.0,19.0,29.89,North,-999,-999.0,-999.0,45,-99.99,,,-99.99,,2013-04-01 22:02:00,
2013-04-01 14:12:00,38.0,19.0,29.88,North,-999,-999.0,-999.0,45,-99.99,,,-99.99,,2013-04-01 22:12:00,
2013-04-01 14:22:00,39.0,19.0,29.88,North,-999,-999.0,-999.0,43,-99.99,,,-99.99,,2013-04-01 22:22:00,
2013-04-01 14:32:00,39.0,19.0,29.87,North,-999,-999.0,-999.0,43,-99.99,,,-99.99,,2013-04-01 22:32:00,
2013-04-01 14:42:00,38.0,18.0,29.87,North,-999,-999.0,-999.0,44,-99.99,,,-99.99,,2013-04-01 22:42:00,
2013-04-01 14:52:00,38.0,18.0,29.87,North,-999,-999.0,-999.0,44,-99.99,,,-99.99,,2013-04-01 22:52:00,
2013-04-01 15:02:00,37.0,17.0,29.87,North,-999,-999.0,-999.0,44,-99.99,,,-99.99,,2013-04-01 23:02:00,
2013-04-01 15:11:00,37.0,17.0,29.87,North,-999,-999.0,-999.0,44,-99.99,,,-99.99,,2013-04-01 23:11:00,
2013-04-01 15:22:00,38.0,17.0,29.87,North,-999,-999.0,-999.0,43,-99.99,,,-99.99,,2013-04-01 23:22:00,
2013-04-01 15:32:00,38.0,17.0,29.87,North,-999,-999.0,-999.0,43,-99.99,,,-99.99,,2013-04-01 23:32:00,
2013-04-01 15:42:00,38.0,17.0,29.87,North,-999,-999.0,-999.0,43,-99.99,,,-99.99,,2013-04-01 23:42:00,
2013-04-01 15:52:00,37.0,19.0,29.87,North,-999,-999.0,-999.0,48,-99.99,,,-99.99,,2013-04-01 23:52:00,
2013-04-01 16:02:00,37.0,18.0,29.87,North,-999,-999.0,-999.0,46,-99.99,,,-99.99,,2013-04-02 00:02:00,
2013-04-01 16:11:00,37.0,18.0,29.87,North,-999,-999.0,-999.0,46,-99.99,,,-99.99,,2013-04-02 00:11:00,
2013-04-01 16:21:00,37.0,18.0,29.87,North,-999,-999.0,-999.0,46,-99.99,,,-99.99,,2013-04-02 00:21:00,
2013-04-01 16:32:00,37.0,20.0,29.87,North,-999,-999.0,-999.0,49,-99.99,,,-99.99,,2013-04-02 00:32:00,
2013-04-01 16:42:00,36.0,19.0,29.87,North,-999,-999.0,-999.0,49,-99.99,,,-99.99,,2013-04-02 00:42:00,
2013-04-01 16:53:00,37.0,20.0,29.87,North,-999,-999.0,-999.0,50,-99.99,,,-99.99,,2013-04-02 00:53:00,
2013-04-01 17:01:00,36.0,20.0,29.87,North,-999,-999.0,-999.0,51,-99.99,,,-99.99,,2013-04-02 01:01:00,
2013-04-01 17:11:00,36.0,19.0,29.86,North,-999,-999.0,-999.0,49,-99.99,,,-99.99,,2013-04-02 01:11:00,
2013-04-01 17:21:00,37.0,19.0,29.86,North,-999,-999.0,-999.0,46,-99.99,,,-99.99,,2013-04-02 01:21:00,
2013-04-01 17:32:00,38.0,18.0,29.86,North,-999,-999.0,-999.0,43,-99.99,,,-99.99,,2013-04-02 01:32:00,
2013-04-01 17:41:00,38.0,19.0,29.86,North,-999,-999.0,-999.0,46,-99.99,,,-99.99,,2013-04-02 01:41:00,
2013-04-01 17:52:00,37.0,18.0,29.86,North,-999,-999.0,-999.0,45,-99.99,,,-99.99,,2013-04-02 01:52:00,
2013-04-01 18:02:00,37.0,17.0,29.86,North,-999,-999.0,-999.0,45,-99.99,,,-99.99,,2013-04-02 02:02:00,
2013-04-01 18:12:00,36.0,18.0,29.86,North,-999,-999.0,-999.0,47,-99.99,,,-99.99,,2013-04-02 02:12:00,
2013-04-01 18:21:00,36.0,18.0,29.86,North,-999,-999.0,-999.0,47,-99.99,,,-99.99,,2013-04-02 02:21:00,
2013-04-01 18:32:00,36.0,18.0,29.86,North,-999,-999.0,-999.0,47,-99.99,,,-99.99,,2013-04-02 02:32:00,
2013-04-01 18:42:00,36.0,17.0,29.86,North,-999,-999.0,-999.0,45,-99.99,,,-99.99,,2013-04-02 02:42:00,
2013-04-01 18:52:00,36.0,17.0,29.87,North,-999,-999.0,-999.0,45,-99.99,,,-99.99,,2013-04-02 02:52:00,
2013-04-01 19:01:00,36.0,17.0,29.86,North,-999,-999.0,-999.0,45,-99.99,,,-99.99,,2013-04-02 03:01:00,
2013-04-01 19:12:00,36.0,18.0,29.87,North,-999,-999.0,-999.0,47,-99.99,,,-99.99,,2013-04-02 03:12:00,
2013-04-01 19:21:00,36.0,17.0,29.87,North,-999,-999.0,-999.0,46,-99.99,,,-99.99,,2013-04-02 03:21:00,
2013-04-01 19:33:00,35.0,17.0,29.88,North,-999,-999.0,-999.0,47,-99.99,,,-99.99,,2013-04-02 03:33:00,
2013-04-01 19:42:00,34.0,17.0,29.89,North,-999,-999.0,-999.0,50,-99.99,,,-99.99,,2013-04-02 03:42:00,
2013-04-01 19:52:00,34.0,18.0,29.89,North,-999,-999.0,-999.0,51,-99.99,,,-99.99,,2013-04-02 03:52:00,
2013-04-01 20:02:00,33.0,18.0,29.89,North,-999,-999.0,-999.0,54,-99.99,,,-99.99,,2013-04-02 04:02:00,
2013-04-01 20:12:00,33.0,18.0,29.90,North,-999,-999.0,-999.0,54,-99.99,,,-99.99,,2013-04-02 04:12:00,
2013-04-01 20:22:00,31.0,18.0,29.91,North,-999,-999.0,-999.0,58,-99.99,,,-99.99,,2013-04-02 04:22:00,
2013-04-01 20:32:00,30.0,18.0,29.91,North,-999,-999.0,-999.0,59,-99.99,,,-99.99,,2013-04-02 04:32:00,
2013-04-01 20:42:00,29.0,17.0,29.91,North,-999,-999.0,-999.0,60,-99.99,,,-99.99,,2013-04-02 04:42:00,
2013-04-01 20:52:00,29.0,16.0,29.91,North,-999,-999.0,-999.0,59,-99.99,,,-99.99,,2013-04-02 04:52:00,
2013-04-01 21:02:00,28.0,15.0,29.92,North,-999,-999.0,-999.0,58,-99.99,,,-99.99,,2013-04-02 05:02:00,
2013-04-01 21:11:00,27.0,15.0,29.92,North,-999,-999.0,-999.0,61,-99.99,,,-99.99,,2013-04-02 05:11:00,
2013-04-01 21:22:00,26.0,15.0,29.92,North,-999,-999.0,-999.0,62,-99.99,,,-99.99,,2013-04-02 05:22:00,
2013-04-01 21:32:00,27.0,15.0,29.93,North,-999,-999.0,-999.0,61,-99.99,,,-99.99,,2013-04-02 05:32:00,
2013-04-01 21:42:00,27.0,16.0,29.93,North,-999,-999.0,-999.0,62,-99.99,,,-99.99,,2013-04-02 05:42:00,
2013-04-01 21:52:00,27.0,15.0,29.93,North,-999,-999.0,-999.0,62,-99.99,,,-99.99,,2013-04-02 05:52:00,
2013-04-01 22:02:00,26.0,15.0,29.93,North,-999,-999.0,-999.0,61,-99.99,,,-99.99,,2013-04-02 06:02:00,
2013-04-01 22:12:00,26.0,15.0,29.93,North,-999,-999.0,-999.0,62,-99.99,,,-99.99,,2013-04-02 06:12:00,
2013-04-01 22:21:00,25.0,15.0,29.93,North,-999,-999.0,-999.0,63,-99.99,,,-99.99,,2013-04-02 06:21:00,
2013-04-01 22:31:00,25.0,14.0,29.94,North,-999,-999.0,-999.0,64,-99.99,,,-99.99,,2013-04-02 06:31:00,
2013-04-01 22:42:00,24.0,14.0,29.94,North,-999,-999.0,-999.0,64,-99.99,,,-99.99,,2013-04-02 06:42:00,
2013-04-01 22:52:00,24.0,14.0,29.94,North,-999,-999.0,-999.0,65,-99.99,,,-99.99,,2013-04-02 06:52:00,
2013-04-01 23:01:00,23.0,14.0,29.94,North,-999,-999.0,-999.0,66,-99.99,,,-99.99,,2013-04-02 07:01:00,
2013-04-01 23:11:00,22.0,13.0,29.95,North,-999,-999.0,-999.0,67,-99.99,,,-99.99,,2013-04-02 07:11:00,
2013-04-01 23:21:00,21.0,13.0,29.95,North,-999,-999.0,-999.0,71,-99.99,,,-99.99,,2013-04-02 07:21:00,
2013-04-01 23:31:00,20.0,12.0,29.95,North,-999,-999.0,-999.0,69,-99.99,,,-99.99,,2013-04-02 07:31:00,
2013-04-01 23:42:00,20.0,14.0,29.96,North,-999,-999.0,-999.0,76,-99.99,,,-99.99,,2013-04-02 07:42:00,
2013-04-01 23:52:00,18.0,13.0,29.96,North,-999,-999.0,-999.0,79,-99.99,,,-99.99,,2013-04-02 07:52:00,